KF2XN Weather Reports


Display with metric or nautical units.
time (UTC)temp
F
wind
direction
speed
MPH
gust
MPH
rain 1hr
in
rain 24hr
in
rain mn
in
humidity
%
barometer
mb
20260505083059 54 153 1.0 4.0 0.00 0.10 0.10 92 1000.6
20260505081553 53 204 1.0 3.0 0.00 0.10 0.10 93 1000.9
20260505080047 53 165 1.0 5.0 0.00 0.10 0.10 93 1001.1
20260505074536 53 195 2.0 5.0 0.00 0.10 0.10 93 1001.1
20260505073048 54 137 2.0 7.0 0.00 0.10 0.10 93 1001.1
20260505071542 54 188 3.0 9.0 0.02 0.10 0.10 93 1001.3
20260505070039 55 176 3.0 7.0 0.03 0.10 0.10 92 1001.5
20260505064524 55 169 6.0 11.0 0.09 0.10 0.10 91 1001.5
20260505063027 57 213 4.0 11.0 0.10 0.10 0.10 90 1001.7
20260505061527 57 270 4.0 9.0 0.08 0.08 0.08 91 1003.5
20260505060038 56 246 8.0 19.0 0.07 0.07 0.07 90 1002.6
20260505054515 57 200 5.0 14.0 0.01 0.01 0.01 88 1002.4
20260505053009 59 178 11.0 19.0 0.00 0.00 0.00 81 1002.5
20260505051506 59 189 9.0 18.0 0.00 0.00 0.00 76 1002.6
20260505041600 64 235 8.0 21.0 0.00 0.00 0.00 68 1002.4
20260505040049 63 220 10.0 25.0 0.00 0.00 0.00 70 1002.2
20260505034547 61 200 6.0 11.0 0.00 0.00 0.00 73 1002.1
20260505033045 60 179 4.0 10.0 0.00 0.00 0.00 73 1001.9
20260505031543 60 164 3.0 7.0 0.00 0.00 0.00 72 1002.1
20260505030056 60 179 4.0 11.0 0.00 0.00 0.00 71 1002.2
20260505024547 60 216 4.0 9.0 0.00 0.00 0.00 72 1002.6
20260505023041 59 169 4.0 9.0 0.00 0.00 0.00 73 1002.7
20260505021540 58 190 2.0 13.0 0.00 0.00 0.00 68 1002.6
20260505020041 57 211 4.0 10.0 0.00 0.00 0.00 66 1002.9
20260505014559 59 161 3.0 6.0 0.00 0.00 0.00 61 1002.5
20260505013047 61 154 2.0 5.0 0.00 0.00 0.00 55 1002.3
20260505011541 63 173 1.0 5.0 0.00 0.00 0.00 51 1002.4
20260505010046 63 178 2.0 4.0 0.00 0.00 0.00 49 1002.4
20260505004546 65 206 2.0 6.0 0.00 0.00 0.00 46 1002.2
20260505003051 66 226 3.0 6.0 0.00 0.00 0.00 44 1002.3
20260505001533 67 216 3.0 8.0 0.00 0.00 0.00 41 1002.3
20260505000035 68 231 4.0 9.0 0.00 0.00 0.00 40 1002.4
20260504234531 69 257 6.0 12.0 0.00 0.00 0.00 39 1002.5
20260504233034 70 232 7.0 13.0 0.00 0.00 0.00 38 1002.5
20260504231528 70 237 5.0 14.0 0.00 0.00 0.00 38 1002.4
20260504230028 71 264 5.0 14.0 0.00 0.00 0.00 40 1002.6
20260504224527 70 238 7.0 13.0 0.00 0.00 0.00 43 1002.8
20260504223032 70 207 7.0 16.0 0.00 0.00 0.00 43 1002.8
20260504221526 70 231 11.0 20.0 0.00 0.00 0.00 42 1002.7
20260504220028 70 257 8.0 17.0 0.00 0.00 0.00 41 1002.7
20260504214526 71 217 9.0 19.0 0.00 0.00 0.00 36 1002.7
20260504213027 71 206 8.0 17.0 0.00 0.00 0.00 39 1002.6
20260504211533 71 237 8.0 21.0 0.00 0.00 0.00 40 1002.6
20260504210020 71 206 12.0 20.0 0.00 0.00 0.00 41 1002.8
20260504204519 71 203 8.0 20.0 0.00 0.00 0.00 43 1002.7
20260504203017 70 200 8.0 17.0 0.00 0.00 0.00 44 1003.0
20260504201517 71 263 5.0 15.0 0.00 0.00 0.00 46 1003.2
20260504200012 70 204 6.0 13.0 0.00 0.00 0.00 46 1003.3
20260504194511 69 194 8.0 17.0 0.00 0.00 0.00 46 1003.5
20260504193008 69 224 13.0 20.0 0.00 0.00 0.00 45 1003.8
20260504191504 69 255 8.0 17.0 0.00 0.00 0.00 49 1004.1
20260504190000 68 252 9.0 19.0 0.00 0.00 0.00 47 1004.4
20260504184558 68 226 11.0 21.0 0.00 0.00 0.00 49 1004.3
20260504183055 67 219 8.0 19.0 0.00 0.00 0.00 50 1004.6
20260504181600 67 235 12.0 22.0 0.00 0.00 0.00 50 1004.8
20260504180052 66 225 10.0 24.0 0.00 0.00 0.00 53 1005.0
20260504174547 66 213 9.0 23.0 0.00 0.00 0.00 53 1005.4
20260504173050 64 220 12.0 24.0 0.00 0.00 0.00 53 1005.6
20260504171541 63 240 11.0 22.0 0.00 0.00 0.00 55 1005.6